Saint Louis, MO

5:42 AM CST on December 07, 2016 (GMT -0600)
Lambert-Saint Louis International

Weather History for KSTL - January, 2014

Change the Weather History Date:

Sunday, January 19, 2014

  Actual Average Record
Temperature  
Mean Temperature 38 °F 32 °F  
Max Temperature 53 °F 40 °F 75 °F (1952)
Min Temperature 23 °F 24 °F -14 °F (1940)
Degree Days  
Heating Degree Days 27 33  
Month to date heating degree days 690 635  
Since 1 July heating degree days 2530 2400  
Cooling Degree Days 0 0  
Month to date cooling degree days 0 0  
Year to date cooling degree days 0 0  
Moisture  
Dew Point 19 °F    
Average Humidity 51    
Maximum Humidity 74    
Minimum Humidity 28    
Precipitation  
Precipitation 0.00 in 0.07 in 1.36 in (1988)
Month to date precipitation 1.58 1.51  
Year to date precipitation 1.58 1.51  
Snow  
Snow 0.00 in 0.20 in 6.90 in (1987)
Month to date snowfall 15.3 3.4  
Since 1 July snowfall 20.9 8.5  
Snow Depth 0.00 in    
Sea Level Pressure  
Sea Level Pressure 29.94 in    
Wind  
Wind Speed 13 mph (WSW)    
Max Wind Speed 22 mph    
Max Gust Speed 29 mph    
Visibility 10 miles    
Events      
T = Trace of Precipitation, MM = Missing Value Source: NWS Daily Summary

Daily Weather History Graph

Daily Weather History Graph

Search for Another Location

Airport or City:

Trip Planner

Search our weather history database for the weather conditions in past years. The results will help you decide how hot, cold, wet, or windy it might be!

Date:

Astronomy

Jan. 19, 2014 Rise Set
Actual Time 7:16 AM CST 5:08 PM CST
Civil Twilight 6:47 AM CST 5:37 PM CST
Nautical Twilight 6:15 AM CST 6:09 PM CST
Astronomical Twilight 5:43 AM CST 6:41 PM CST
Moon 8:43 PM CST (1/19) 8:49 AM CST (1/19)
Length of Visible Light 10h 49m
Length of Day
9h 51m
Waning Gibbous, 89% of the Moon is Illuminated
Jan 19
Waning Gibbous
Jan 23
Last Quarter
Jan 30
New
Feb 6
First Quarter
Feb 14
Full

Hourly Weather History & Observations

Time (CST) Temp. Windchill Dew Point Humidity Pressure Visibility Wind Dir Wind Speed Gust Speed Precip Events Conditions
12:51 AM 27.0 °F 16.7 °F 18.0 °F 69% 30.04 in 10.0 mi NW 11.5 mph - N/A   Overcast
1:51 AM 27.0 °F 15.2 °F 18.0 °F 69% 30.06 in 10.0 mi NW 15.0 mph - N/A   Overcast
2:51 AM 25.0 °F 14.8 °F 16.0 °F 69% 30.07 in 10.0 mi NW 10.4 mph - N/A   Overcast
3:51 AM 26.1 °F 15.6 °F 17.1 °F 69% 30.09 in 10.0 mi WNW 11.5 mph 19.6 mph N/A   Overcast
4:48 AM 24.8 °F 17.9 °F 15.8 °F 69% 30.03 in 10.0 mi West 5.8 mph - N/A   Scattered Clouds
4:51 AM 24.1 °F 17.0 °F 16.0 °F 71% 30.06 in 9.0 mi West 5.8 mph - N/A   Scattered Clouds
5:51 AM 23.0 °F 17.0 °F 16.0 °F 74% 30.06 in 9.0 mi WSW 4.6 mph - N/A   Partly Cloudy
6:51 AM 23.0 °F 13.9 °F 16.0 °F 74% 30.07 in 9.0 mi SW 8.1 mph - N/A   Scattered Clouds
7:51 AM 25.0 °F 14.8 °F 17.1 °F 72% 30.06 in 8.0 mi SW 10.4 mph - N/A   Partly Cloudy
8:51 AM 28.0 °F 15.7 °F 17.1 °F 63% 30.06 in 10.0 mi WSW 17.3 mph 21.9 mph N/A   Partly Cloudy
9:51 AM 30.9 °F 20.2 °F 18.0 °F 59% 30.06 in 10.0 mi WSW 15.0 mph - N/A   Clear
10:51 AM 36.0 °F 26.7 °F 19.0 °F 50% 30.06 in 10.0 mi WSW 15.0 mph - N/A   Clear
11:51 AM 39.9 °F 29.7 °F 21.9 °F 49% 30.01 in 10.0 mi WSW 23.0 mph 27.6 mph N/A   Partly Cloudy
12:51 PM 45.0 °F 37.9 °F 23.0 °F 42% 29.95 in 10.0 mi SW 16.1 mph 21.9 mph N/A   Partly Cloudy
1:51 PM 48.9 °F - 23.0 °F 36% 29.89 in 10.0 mi SW 16.1 mph - N/A   Partly Cloudy
2:51 PM 52.0 °F - 21.9 °F 31% 29.86 in 10.0 mi SW 17.3 mph - N/A   Partly Cloudy
3:51 PM 53.1 °F - 21.0 °F 29% 29.81 in 10.0 mi SSW 12.7 mph - N/A   Partly Cloudy
4:51 PM 52.0 °F - 19.9 °F 28% 29.81 in 10.0 mi SSW 12.7 mph - N/A   Clear
5:51 PM 46.0 °F 41.4 °F 19.9 °F 35% 29.82 in 10.0 mi SW 9.2 mph - N/A   Clear
6:51 PM 46.0 °F 41.4 °F 19.9 °F 35% 29.82 in 10.0 mi SW 9.2 mph - N/A   Clear
7:51 PM 46.9 °F - 19.9 °F 34% 29.81 in 10.0 mi WSW 12.7 mph - N/A   Clear
8:51 PM 48.0 °F - 19.9 °F 33% 29.80 in 10.0 mi WSW 16.1 mph - N/A   Clear
9:51 PM 48.9 °F - 21.0 °F 33% 29.80 in 10.0 mi WSW 18.4 mph - N/A   Partly Cloudy
10:51 PM 50.0 °F - 21.9 °F 33% 29.79 in 10.0 mi WSW 19.6 mph 28.8 mph N/A   Partly Cloudy
11:51 PM 48.0 °F - 23.0 °F 37% 29.78 in 10.0 mi West 19.6 mph - N/A   Partly Cloudy